Terug naar catalogus

SL-8 R/B

ActiefLEO
NORAD 22676·ROCKET BODY·🇷🇺 Russia

Gelanceerd Jun 16, 1993 vanaf Plesetsk Cosmodrome

Loading…

Volgende Passages (komende 24 uur)

TLE

VersSource: Space-Track

Epoch: Sep 14, 2026, 13:49 UTC

1 22676U 93036B   26257.57579465  .00000093  00000-0  41370-4 0  9995
2 22676  74.0408 122.7063 0017555  41.0136 319.2333 14.35336817739124

Volg SL-8 R/B in realtime met AllMySat

Download on the App Store